Regional Weather Roundup
Issued by NWS Charleston, SC

Current Version | Previous Version | Text Only | Print | Product List | Glossary Off
Versions: 1 2 3 4 5 6 7 8 9 10 11 12 13 14 15 16 17 18 19 20 21 22 23 24 25 26 27 28 29 30 31 32 33 34 35 36 37 38 39 40 41 42 43 44 45 46 47 48 49 50

195
ASUS42 KCHS 031327
RWRCHS

REGIONAL WEATHER ROUNDUP
NATIONAL WEATHER SERVICE CHARLESTON SC
800 AM EST SAT DEC 03 2016

NOTE: "FAIR" INDICATES FEW OR NO CLOUDS BELOW 12,000 FEET WITH NO
SIGNIFICANT WEATHER AND/OR OBSTRUCTIONS TO VISIBILITY.

NOT ALL STATIONS ARE QUALITY CONTROLLED. USE DATA WITH CAUTION...
ESPECIALLY DEWPOINT OBSERVATIONS.

SCZ027-030-031-034>040-042>050-031400-
...SOUTHEAST SOUTH CAROLINA...

CITY           SKY/WX    TMP DP  RH WIND       PRES   REMARKS
N CHARLESTON   PTCLDY    45  35  68 NE9       30.26R
WATERFRONT PRK   N/A     49  39  68 N8        30.25R
MOUNT PLEASANT NOT AVBL
JOHNS ISLAND   FAIR      46  39  76 N7        30.26S
PINOPOLIS        N/A     48  37  66 NE15      30.18R
MONCKS CORNER  FAIR      45  32  61 E9        30.27S HAZE
SUMMERVILLE    FAIR      41  41 100 N3        30.28R
BEAUFORT MCAS  PTCLDY    46  40  79 CALM      30.26R
BEAUFORT ARPT  FAIR      46  41  81 N5        30.25R HAZE
HILTON HEAD IS MOCLDY    48  46  93 N5        30.26R
WALTERBORO     CLOUDY    45  45 100 N5        30.27S
ALLENDALE      FAIR      45  39  81 CALM      30.27R

...SOUTHERN MIDLANDS AND PEE DEE...

CITY           SKY/WX    TMP DP  RH WIND       PRES   REMARKS
GEORGETOWN     NOT AVBL
KINGSTREE      FAIR      37  34  87 CALM      30.29R
ORANGEBURG     CLOUDY    38  36  92 CALM      30.28R
BARNWELL       NOT AVBL
AIKEN          FAIR      32  32 100 CALM      30.30R
MANNING        NOT AVBL
COLUMBIA       MOCLDY    39  34  82 CALM      30.28R
SUMTER         CLOUDY    39  31  72 NE5       30.27R WCI  36
FLORENCE       CLOUDY    36  33  89 CALM      30.29R
MYRTLE BEACH   CLEAR     43  34  70 NE9       30.29R
N MYRTLE BEACH CLOUDY    40  36  86 CALM      30.26R

$$

GAZ063-065-086>088-099>101-113>116-118-119-134>141-150-031400-
...SOUTHEAST GEORGIA...

CITY           SKY/WX    TMP DP  RH WIND       PRES   REMARKS
SAVANNAH ARPT  MOCLDY    45  37  73 CALM      30.25S
HUNTER AAF     CLOUDY    47  39  74 N7        30.22R
FORT STEWART   CLOUDY    47  37  68 CALM      30.22S
STATESBORO     CLOUDY    48  40  74 NE3       30.26R
SYLVANIA       CLOUDY   N/A N/A N/A NE5       30.27R
CLAXTON        FAIR      44  44 100 CALM      30.27R

...CSRA...CENTRAL AND FAR SOUTHEAST GEORGIA...

CITY           SKY/WX    TMP DP  RH WIND       PRES   REMARKS
THOMSON        PTCLDY    37  37 100 CALM      30.32S
AUGUSTA-BUSH   CLOUDY    38  35  89 N3        30.28R
AUGUSTA-DANIEL CLOUDY    45  32  60 N6        30.28R
SWAINSBORO     FAIR      45  41  87 CALM      30.28R
VIDALIA        PTCLDY    48  39  71 N6        30.25F
EASTMAN        FAIR      48  32  53 CALM      30.28R
HAZLEHURST     FAIR      49  37  63 NE6       30.24S
ALMA           PTCLDY    49  36  61 N3        30.24S
WAYCROSS       CLOUDY    52  40  63 NE3       30.25R
JESUP          FAIR      50  41  71 NE5       30.24S
BAXLEY         FAIR      50  41  71 N3        30.25R
BRUNSWICK      CLOUDY    50  43  76 CALM      30.24F
SAINT SIMONS   MOCLDY    51  38  60 N5        30.23S

$$

SCZ027-028-034-036>038-045-046-048>050-GAZ119-141-031400-
...LAKE AND SUPPLEMENTAL COASTAL OBSERVATIONS...

STATION/POSITION TIME  TEMP    WIND        PRES    WAVE   SWELL
                       AIR SEA DIR/SP/G            HT/PER HT/PER/DIR
                 (UTC) (F)     (DEG/KT/KT) (MB)    (FT/S) (FT/S/D)
WINYAH BAY       1245   45      10/  7     1024.0S
LAKE MURRAY      1220   44      CALM  /  2 1024.4
ACE BASIN NERRS  1245   45     360/  2     1024.0R
FORT PULASKI     1300   49 62   10/  7/  9 1024.0
SAPELO ISLAND    1300   50      20/  6     1024.0

$$

ANZ835-935-AMZ111-154-330-350-352-354-370-450-454-472-031400-
...C-MAN AND BUOY OBSERVATIONS...

STATION/POSITION TIME  TEMP    WIND        PRES    WAVE   SWELL
                       AIR SEA DIR/SP/G            HT/PER HT/PER/DIR
                 (UTC) (F)     (DEG/KT/KT) (MB)    (FT/S) (FT/S/D)
BUOY 41004       1250   60 75   20/ 19/ 23 1022.3F   4/ 4   2/120/ 9
BUOY 41008       1250   60 64   10/ 12/ 14 1023.7R   2/ 9   2/140/ 9
FOLLY BEACH CMAN 1300   50      20/ 16/ 18 1024.6R
CAPERS NEARSHORE 1208   51 62   20/ 14/ 17 1023.9R
FRIPP NEARSHORE  1308   56 63   30/ 12/ 16 1024.0R


STATION/POSITION TIME  TEMP    WIND        PRES    WAVE   SWELL
                       AIR SEA DIR/SP/G            HT/PER HT/PER/DIR
                 (UTC) (F)     (DEG/KT/KT) (MB)    (FT/S) (FT/S/D)
5E ST. MARYS GA  1300      66                N/A     3/ 5
FRYING PAN BUOY  1300   53 74   20/ 19/ 25 1023.6
BUOY 41025       1250   51 75  360/ 23/ 29 1021.4F   5/ 6   2/ 60/ 8
CAPE LOOKOUT NC  1300   44     340/ 12/ 14 1023.4R
BUOY 41002       1250   65 74  360/ 16/ 21 1019.9R   5/ 5   2/160/ 8
BUOY 41010       NOT AVBL
ST AUGUSTINE FL  1300   64 66   30/ 15/ 17 1023.4R


$$




USA.gov is the U.S. government's official web portal to all federal, state and local government web resources and services.